Location: Unspecified
(52.1971°N, 0.0000°E)
Time: 06:18:59
(UTC+00:00)

YUBILEINY - Pass Details

Date: 18 December 2019
Orbit: 1478 x 1509 km, 82.5° (Epoch: 25 January)

Event Time Altitude Azimuth Distance (km) Brightness Sun altitude
Rises 04:49:18 0° 345° (NNW) 4,613 ? -28.4°
Reaches altitude 10° 04:53:31 10° 4° (N) 3,630 ? -27.8°
Maximum altitude 04:59:12 18° 45° (NE) 3,012 ? -26.9°
Drops below altitude 10° 05:04:52 10° 87° (E) 3,626 ? -26.0°
Sets 05:09:01 0° 105° (ESE) 4,606 ? -25.4°
